Вернуться в каталог

BREEZE-M DEB

TANK

АктивенHEO
NORAD 33454·DEBRIS·🇷🇺 Russia

Запущен Dec 10, 2008 с Baikonur Cosmodrome

Loading…

Ближайшие Пролёты (ближайшие 24 часа)

TLE

СвежийSource: Space-Track

Эпоха: Sep 14, 2026, 13:54 UTC

1 33454U 08063B   26257.57938539  .00001967  00000-0  36213-3 0  9998
2 33454  49.4680  11.9194 5343972 330.3907   7.8628  5.05928439317518

Отслеживайте BREEZE-M DEB в реальном времени с AllMySat

Download on the App Store